Regional Weather Roundup
Issued by NWS

Home | Current Version | Previous Version | Text Only | Print | Product List | Glossary Off
Versions: 1 2 3 4 5 6 7 8 9 10 11 12 13 14 15 16 17 18 19 20 21 22 23 24 25 26 27 28 29 30 31 32 33 34 35 36 37 38 39 40 41 42 43 44 45 46 47 48 49 50

000
ASUS43 KLOT 241000
RWRIL

ILLINOIS REGIONAL WEATHER ROUNDUP
NATIONAL WEATHER SERVICE CHICAGO/ROMEOVILLE IL
500 AM CDT SUN MAY 24 2015

NOTE: "FAIR" INDICATES FEW OR NO CLOUDS BELOW 12,000 FEET WITH NO
SIGNIFICANT WEATHER AND/OR OBSTRUCTIONS TO VISIBILITY.

* THESE STATIONS ARE NOT UNDER NWS QUALITY CONTROL. THEY ALSO MAY NOT
  REPORT WEATHER SUCH AS PRECIPITATION OR FOG.

ILZ001-002-007-009-015-016-024-241100-
NORTHWEST ILLINOIS

CITY           SKY/WX    TMP DP  RH WIND       PRES   REMARKS
MOLINE         LGT RAIN  61  54  77 E8        30.12F
STERLING*      CLOUDY    61  52  72 S5        30.18S
SAVANNA*       LGT RAIN  64  54  69 CALM      30.16S
$$

ILZ003-004-008-010-011-017-018-241100-
NORTH CENTRAL ILLINOIS

CITY           SKY/WX    TMP DP  RH WIND       PRES   REMARKS
ROCKFORD       CLOUDY    62  50  64 CALM      30.19S
$$

ILZ005-006-012>014-019>023-241100-
NORTHEAST ILLINOIS

CITY           SKY/WX    TMP DP  RH WIND       PRES   REMARKS
CHICAGO-OHARE  CLOUDY    61  48  62 SE3       30.19S
CHICAGO-MIDWAY CLOUDY    66  48  52 CALM      30.20R
AURORA         CLOUDY    60  49  66 E3        30.19S
WAUKEGAN       FAIR      54  47  77 CALM      30.19F
DUPAGE AIRPORT CLOUDY    59  51  75 CALM      30.19S
WHEELING       MOCLDY    58  49  72 CALM      30.21S
NORTHERLY ISL    N/A     60  50  69 E1          N/A
$$

LMZ740>746-241100-
SOUTHERN LAKE MICHIGAN

STATION/POSITION SKY/WX   TEMP    WIND        PRES    VSBY  WAVE
                          AIR SEA DIR/SP/G                  HT/PER
                          (F)     (DEG/KT/KT) (MB)    (MI)  (FT/S)
SOUTHERN BUOY              46 38  180/  8/ 10 1023.5F
HARRISON CRIB              67     180/  8/  8   N/A
BURNHAM HARBOR             66     170/  3/  7   N/A
CALUMET HARBOR             65     180/  5/  6   N/A
BURNS HARBOR               66     180/  5/  7 1023.4R
MICHIGAN CITY              65     140/  9/ 12   N/A
MICHIGAN CITY 6N           58 54  160/  4/  4   N/A           0
ST. JOSEPH                 59 55  200/  6/  6   N/A           0
$$

ILZ025>027-034>036-040-047-049-050-058-095>099-241100-
WEST-CENTRAL ILLINOIS

CITY           SKY/WX    TMP DP  RH WIND       PRES   REMARKS
QUINCY         CLOUDY    61  58  90 E9        30.07F
$$

ILZ028>032-037-038-041>044-048-051>054-059>061-241100-
CENTRAL ILLINOIS

CITY           SKY/WX    TMP DP  RH WIND       PRES   REMARKS
DECATUR        CLOUDY    64  51  62 SE7       30.16S
PEORIA         CLOUDY    68  50  52 E3        30.14F
SPRINGFIELD    CLOUDY    66  52  60 E8        30.12F
TAYLORVILLE    NOT AVBL
$$

ILZ033-039-045-046-055>057-062-063-241100-
EAST-CENTRAL ILLINOIS

CITY           SKY/WX    TMP DP  RH WIND       PRES   REMARKS
CHAMPAIGN      CLOUDY    63  52  67 E6        30.17F
DANVILLE*      CLOUDY    63  50  62 SE5       30.16F
MATTOON        CLOUDY    62  50  64 SE5       30.16F
$$

ILZ079-100>102-241100-
SOUTHWEST ILLINOIS

CITY           SKY/WX    TMP DP  RH WIND       PRES   REMARKS
BELLEVILLE     CLOUDY    63  56  76 E6        30.10S
CAHOKIA*       CLOUDY    66  53  63 SE8       30.10S
SPARTA*        CLOUDY    63  55  76 SE6       30.12S
$$

ILZ064>066-069>071-074>076-080>082-084>086-088>090-092>094-241100-
SOUTH-CENTRAL ILLINOIS

CITY           SKY/WX    TMP DP  RH WIND       PRES   REMARKS
CARBONDALE     CLOUDY    62  55  77 SE3       30.13R
MT. VERNON     CLOUDY    63  50  63 CALM      30.16S
$$

ILZ067-068-072-073-078-083-087-091-241100-
SOUTHEAST ILLINOIS

CITY           SKY/WX    TMP DP  RH WIND       PRES   REMARKS
LAWRENCEVILLE  MOCLDY    60  52  74 E8        30.19R
$$

ABBREVIATIONS USED IN REMARKS
   TC - TEMPERATURE IN CELSIUS
  WCI - WIND CHILL INDEX
   HX - HEAT INDEX
  VSB - VISIBILITY
$$



USA.gov is the U.S. government's official web portal to all federal, state and local government web resources and services.